This is the latest recevied weather packets stored in our database for station/object CT4TX-11. If no packets are shown the sender has not sent any weather packets the latest 10 day(s).
| Time | Temp. | Humidity | Pressure | Rain* | Wind** | Luminosity | Snow |
|---|---|---|---|---|---|---|---|
| 1787862957 | 28.33° C | 39% | 1005.7 hPa | - | - | - | - |
| 1787862057 | 28.89° C | 38% | 1005.6 hPa | - | - | - | - |
| 1787861157 | 29.44° C | 38% | 1005.4 hPa | - | - | - | - |
| 1787860257 | 29.44° C | 38% | 1005.1 hPa | - | - | - | - |
| 1787859356 | 29.44° C | 37% | 1004.8 hPa | - | - | - | - |
| 1787858456 | 29.44° C | 36% | 1004.7 hPa | - | - | - | - |
| 1787857558 | 29.44° C | 36% | 1004.5 hPa | - | - | - | - |
| 1787856656 | 29.44° C | 37% | 1004.2 hPa | - | - | - | - |
| 1787855755 | 30° C | 37% | 1004 hPa | - | - | - | - |
| 1787854855 | 30° C | 38% | 1003.9 hPa | - | - | - | - |
| 1787853955 | 29.44° C | 40% | 1003.7 hPa | - | - | - | - |
| 1787853055 | 30° C | 40% | 1003.6 hPa | - | - | - | - |
| 1787852154 | 30° C | 40% | 1003.5 hPa | - | - | - | - |
| 1787851254 | 30° C | 40% | 1003.3 hPa | - | - | - | - |
| 1787850354 | 30° C | 40% | 1003.1 hPa | - | - | - | - |
| 1787849454 | 30° C | 39% | 1003 hPa | - | - | - | - |
| 1787848553 | 30° C | 38% | 1002.8 hPa | - | - | - | - |
| 1787847653 | 30° C | 36% | 1002.8 hPa | - | - | - | - |
| 1787846752 | 30.56° C | 41% | 1002.4 hPa | - | - | - | - |
| 1787845857 | 31.11° C | 41% | 1002.4 hPa | - | - | - | - |
| 1787844957 | 30.56° C | 41% | 1002.3 hPa | - | - | - | - |
| 1787844057 | 31.11° C | 40% | 1002.1 hPa | - | - | - | - |
| 1787843156 | 31.11° C | 41% | 1002.1 hPa | - | - | - | - |
| 1787842256 | 30.56° C | 41% | 1002 hPa | - | - | - | - |
| 1787841356 | 30.56° C | 41% | 1002 hPa | - | - | - | - |
* Rain since midnight (hover to see other rain measurements)
** Current wind speed in m/s (hover to see current wind gust speed)